Torna al catalogo

STARLINK-35078

AttivoComunicazioniSSO
NORAD 65523·PAYLOAD·🇺🇸 United States

Lanciato Sep 6, 2025 da Cape Canaveral Space Force Station

Loading…

Prossimi Passaggi (prossime 24 ore)

TLE

AggiornatoSource: CelesTrak SupGP

Epoca: Sep 14, 2026, 21:11 UTC

1 65523C 25200D   26257.88312500 -.00078842  00000+0 -24483-2 0  2579
2 65523  97.2852 324.4142 0000883  95.9209 312.8360 15.33468066    15

Traccia STARLINK-35078 in tempo reale con AllMySat

Download on the App Store